User: anonymous   Login
Location: Unspecified
(0.0000°N, 0.0000°E)
Time: 13:37:03
(UTC+02:00)
Language:

Iridium 15 - Orbit

View from above orbital plane
View from above orbital plane
View from above satellite
View from above satellite

Ground track
Ground track

The orbit data is extracted from the following two-line orbital elements,

1 24869U 97034A   15110.38103322  .00000550  00000-0  18933-3 0  9999
2 24869 086.3983 351.5442 0002131 085.8971 032.1920 14.34217761930855
Epoch (UTC): 20 April 2015 09:08:41
Eccentricity: 0.0002131
inclination: 86.3983°
perigee height: 776 km
apogee height: 779 km
right ascension of ascending node: 351.5442°
argument of perigee: 85.8971°
revolutions per day: 14.34217761
mean anomaly at epoch: 32.1920°
orbit number at epoch: 93085

The dashed part of the orbit path shows where the satellite is in the earth's shadow,  

DLR